| time (UTC) | temp C | wind direction | speed KPH | gust KPH | rain 1hr cm | rain 24hr cm | rain mn cm | humidity % | barometer mb |
| 20260505000607 | 15 | 0 | 3.2 | 12.9 | 0.00 | 0.15 | 0.15 | 17 | 1015.5 |
| 20260505000112 | 15 | 0 | 3.2 | 12.9 | 0.00 | 0.15 | 0.15 | 16 | 1015.6 |
| 20260504230607 | 15 | 0 | 1.6 | 14.5 | 0.00 | 0.15 | 0.15 | 19 | 1015.2 |
| 20260504230112 | 15 | 0 | 3.2 | 14.5 | 0.00 | 0.15 | 0.15 | 18 | 1015.3 |
| 20260504220607 | 16 | 0 | 1.6 | 14.5 | 0.00 | 0.15 | 0.15 | 23 | 1015.2 |
| 20260504220111 | 16 | 0 | 4.8 | 16.1 | 0.00 | 0.15 | 0.15 | 20 | 1015.3 |
| 20260504210606 | 16 | 0 | 4.8 | 16.1 | 0.00 | 0.15 | 0.15 | 25 | 1015.7 |
| 20260504210112 | 16 | 0 | 6.4 | 14.5 | 0.00 | 0.15 | 0.15 | 25 | 1015.8 |
| 20260504200112 | 15 | 0 | 4.8 | 19.3 | 0.00 | 0.15 | 0.15 | 31 | 1016.3 |
| 20260504190607 | 11 | 0 | 0.0 | 8.0 | 0.03 | 0.15 | 0.15 | 46 | 1016.8 |
| 20260504190112 | 11 | 0 | 0.0 | 8.0 | 0.03 | 0.15 | 0.15 | 51 | 1016.9 |
| 20260504180112 | 15 | 0 | 1.6 | 8.0 | 0.00 | 0.13 | 0.13 | 35 | 1016.9 |
| 20260504170607 | 14 | 0 | 1.6 | 9.7 | 0.00 | 0.13 | 0.13 | 40 | 1017.0 |
| 20260504170112 | 13 | 0 | 1.6 | 9.7 | 0.00 | 0.13 | 0.13 | 43 | 1017.0 |
| 20260504160127 | 10 | 0 | 3.2 | 9.7 | 0.00 | 0.13 | 0.13 | 62 | 1017.4 |
| 20260504150607 | 8 | 0 | 0.0 | 3.2 | 0.00 | 0.13 | 0.13 | 72 | 1017.5 |
| 20260504150112 | 8 | 0 | 0.0 | 1.6 | 0.00 | 0.13 | 0.13 | 72 | 1017.5 |
| 20260504140606 | 7 | 0 | 0.0 | 1.6 | 0.00 | 0.13 | 0.13 | 83 | 1017.8 |
| 20260504140112 | 7 | 0 | 0.0 | 1.6 | 0.00 | 0.13 | 0.13 | 84 | 1017.9 |
| 20260504130607 | 5 | 0 | 0.0 | 1.6 | 0.00 | 0.13 | 0.13 | 83 | 1017.6 |
| 20260504130112 | 5 | 0 | 0.0 | 1.6 | 0.00 | 0.13 | 0.13 | 83 | 1017.6 |
| 20260504120112 | 4 | 0 | 0.0 | 1.6 | 0.00 | 0.13 | 0.13 | 82 | 1017.0 |
| 20260504110609 | 4 | 0 | 0.0 | 0.0 | 0.00 | 0.13 | 0.13 | 81 | 1017.2 |
| 20260504110111 | 4 | 0 | 0.0 | 1.6 | 0.00 | 0.13 | 0.13 | 81 | 1017.0 |
| 20260504100607 | 5 | 0 | 0.0 | 1.6 | 0.03 | 0.13 | 0.13 | 81 | 1017.0 |
| 20260504080606 | 6 | 0 | 0.0 | 0.0 | 0.10 | 0.10 | 0.10 | 77 | 1018.8 |
| 20260504080111 | 6 | 0 | 0.0 | 0.0 | 0.10 | 0.10 | 0.10 | 77 | 1018.8 |
| 20260504070111 | 10 | 0 | 0.0 | 9.7 | 0.00 | 0.00 | 0.00 | 43 | 1019.7 |
| 20260504060111 | 10 | 0 | 1.6 | 11.3 | 0.00 | 0.00 | 0.00 | 42 | 1019.0 |
| 20260504050607 | 11 | 0 | 0.0 | 0.0 | 0.00 | 0.00 | 0.00 | 36 | 1019.0 |
| 20260504050113 | 11 | 0 | 0.0 | 0.0 | 0.00 | 0.00 | 0.00 | 36 | 1019.0 |
| 20260504040606 | 12 | 0 | 1.6 | 12.9 | 0.00 | 0.00 | 0.00 | 30 | 1020.0 |
| 20260504040111 | 12 | 0 | 3.2 | 12.9 | 0.00 | 0.00 | 0.00 | 30 | 1019.9 |
| 20260504030113 | 12 | 0 | 0.0 | 0.0 | 0.00 | 0.00 | 0.00 | 20 | 1018.6 |
| 20260504020112 | 14 | 0 | 0.0 | 0.0 | 0.00 | 0.00 | 0.00 | 16 | 1018.1 |
| 20260504010606 | 16 | 0 | 0.0 | 0.0 | 0.00 | 0.00 | 0.00 | 13 | 1018.3 |